[[{"header":{"parameterUnit":"m.s-1","parameterCategory":2,"la1":30.2991,"la2":30.254,"lo1":-89.0895,"lo2":-89.0444,"dy":0.0017,"dx":0.0017,"nx":28,"ny":28,"refTime":"2025-09-19T09:00:00:Z","depth":"0","parameterNumber":2,"parameterNumberName":"U-component_of_CURRENTS"},"data":[0,0,0,0,0,0,0,0,0,0,0,0,0,0,0,0,0,0,0,0,0,0,0,0,0,0,0,0,0,0,0,0,0,0,0,0,0,0,0,0,0,0,0,0,0,0,0,0,0,0,0,0,0,0,0,0,0,0,0.2724,0.2725,0,0.278,0.2781,0.2782,0.2787,0.2786,0.2785,0.2784,0.2827,0.2829,0.2831,0,0,0,0,0,0,0,0,0,0,0,0,0,0.2762,0.2761,0.2724,0.2725,0.2725,0.278,0.2781,0.2782,0.2787,0.2786,0.2785,0.2784,0.2826,0.2829,0.2831,0,0,0,0,0,0,0,0,0,0,0,0,0,0.2777,0.2761,0.2724,0.2732,0.2733,0.278,0.2781,0.2782,0.2787,0.2786,0.2785,0.2783,0.2825,0.2828,0.2831,0.2875,0,0,0.284,0.2841,0,0,0,0,0,0,0,0,0.2776,0.2776,0.2731,0.2732,0.2733,0.2772,0.281,0.2812,0.2787,0.277,0.2784,0.2783,0.2807,0.2811,0.2829,0.2877,0.2879,0.284,0.2842,0.2843,0.2844,0,0,0,0,0,0,0,0.2775,0.2775,0.2749,0.2731,0.2732,0.2781,0.278,0.2811,0.2797,0.2771,0.2771,0.2773,0.2807,0.2826,0.283,0.2879,0.284,0.2843,0.2845,0.2846,0.2906,0.2905,0,0,0,0,0,0,0.2756,0.2773,0.2748,0.2751,0.2749,0.278,0.278,0.2764,0.2797,0.28,0.2774,0.2773,0.2822,0.2826,0.2831,0.2852,0.2843,0.2846,0.2848,0.2906,0.2906,0.2905,0,0,0,0,0,0,0.2756,0.2753,0.2745,0.2762,0.2764,0.2779,0.2762,0.2765,0.2777,0.2798,0.2801,0.2781,0.2821,0.2827,0.2825,0.2855,0.2847,0.285,0.2906,0.2906,0.2906,0.2915,0,0,0,0,0,0,0.2757,0.2752,0.2741,0.276,0.2762,0.2774,0.2763,0.2767,0.2779,0.2779,0.2806,0.2809,0.282,0.282,0.2828,0.2859,0.2852,0.2906,0.2906,0.2906,0.2915,0.2915,0.2915,0,0,0,0,0,0.2758,0.2743,0.274,0.2738,0.2743,0.2774,0.2781,0.2791,0.2781,0.2795,0.2784,0.2808,0.2825,0.2822,0.2831,0.2864,0.2906,0.2906,0.2906,0.2915,0.2915,0.2915,0,0,0,0,0,0,0.2748,0.2742,0.274,0.2721,0.2747,0.2774,0.2785,0.2792,0.28,0.2791,0.2801,0.2804,0.2816,0.283,0.2827,0.2876,0.2873,0.2874,0.2877,0.2878,0.2878,0.288,0.2855,0,0,0,0,0,0.2741,0.2733,0.2743,0.2734,0.2742,0.2765,0.2779,0.2789,0.2796,0.2799,0.282,0.2827,0.2827,0.284,0.2852,0.2883,0.2906,0.2908,0.2909,0.2909,0.2914,0.2956,0.2961,0.2904,0.2904,0.2904,0,0,0.2736,0.2733,0.2727,0.2734,0.2752,0.2775,0.2771,0.2793,0.2819,0.2803,0.2841,0.2831,0.283,0.2852,0.2862,0.2867,0.2937,0.2909,0.2909,0.2914,0.2956,0.2962,0.2967,0.2904,0.2904,0.2904,0,0,0.2725,0.2718,0.2709,0.2735,0.2759,0.2784,0.2787,0.2822,0.2841,0.2869,0.2849,0.2841,0.2882,0.2874,0.2873,0.2883,0.293,0.2901,0.2918,0.2958,0.2964,0.2969,0.301,0.3018,0.291,0.291,0.291,0,0.2716,0.2705,0.2718,0.2728,0.275,0.2784,0.2799,0.2836,0.287,0.288,0.2882,0.2894,0.2892,0.2889,0.2884,0.2888,0.292,0.2919,0.2961,0.2966,0.2972,0.3012,0.3021,0.291,0.291,0.291,0.291,0,0.2705,0.2708,0.2713,0.2735,0.2766,0.2791,0.2837,0.2874,0.2901,0.2928,0.2944,0.2933,0.2937,0.2938,0.2913,0.2942,0.2955,0.2951,0.2965,0.2978,0.3019,0.3029,0.2911,0.2911,0.2911,0.291,0,0,0.2651,0.2691,0.2694,0.2713,0.2772,0.2796,0.2848,0.2894,0.2919,0.2964,0.2992,0.2977,0.2974,0.2969,0.2949,0.2976,0.3028,0.2982,0.2984,0.303,0.313,0.2998,0.2997,0.3041,0.3043,0.3044,0.3146,0,0.2638,0.2656,0.2683,0.2726,0.2747,0.2803,0.2846,0.2897,0.2947,0.2996,0.2998,0.3017,0.2991,0.2985,0.3008,0.3018,0.3054,0.3001,0.3103,0.3106,0.2994,0.3003,0.2814,0.2875,0.3156,0.3157,0.3158,0,0.2617,0.2637,0.2661,0.2721,0.2732,0.2763,0.2836,0.2881,0.2954,0.2989,0.3018,0.304,0.3063,0.3048,0.3107,0.3081,0.3107,0.3123,0.3128,0.3008,0.2991,0.2905,0.2883,0.278,0.3174,0.3172,0.3171,0,0.2591,0.2625,0.2645,0.2669,0.2738,0.2754,0.2794,0.2867,0.2906,0.299,0.3028,0.3072,0.3096,0.3144,0.3168,0.3157,0.3245,0.3237,0.315,0.3143,0.2999,0.2974,0.2891,0.3295,0.3295,0.3295,0.3295,0,0.2583,0.2597,0.2627,0.2653,0.267,0.2725,0.276,0.2815,0.2886,0.2929,0.3013,0.305,0.3125,0.3181,0.3205,0.3197,0.3282,0.3153,0.3155,0.2994,0.2968,0.2885,0.2883,0.3299,0.3298,0.3297,0.3296,0,0.2563,0.2585,0.2611,0.2659,0.2664,0.2681,0.2734,0.2769,0.2842,0.2908,0.2939,0.3053,0.3101,0.3162,0.3239,0.3221,0.3128,0.3223,0.3021,0.2994,0.2763,0.2769,0.2609,0.2557,0.3139,0.3136,0.3134,0,0.2546,0.2557,0.2602,0.2615,0.2633,0.2654,0.2673,0.2739,0.2778,0.2894,0.2924,0.3004,0.3028,0.3088,0.3051,0.3063,0.3017,0.2924,0.2839,0.2713,0.2725,0.2626,0.259,0.2677,0.2671,0.2667,0.2663,0,0.2519,0.2538,0.2575,0.2601,0.2617,0.2625,0.2655,0.2667,0.2748,0.2791,0.285,0.2879,0.2894,0.2794,0.2793,0.2784,0.2728,0.2821,0.2752,0.2393,0.2222,0.2185,0.2666,0.262,0.2624,0.2627,0.263,0.2631,0.2488,0.2509,0.2559,0.2571,0.2591,0.2584,0.2537,0.2576,0.2587,0.2575,0.2696,0.2626,0.258,0.2505,0.2495,0.2306,0.2392,0.223,0.2268,0.2193,0.2051,0.242,0.2324,0.2326,0.2328,0.233,0.2332,0,0.242,0.247,0.2514,0.2522,0.2498,0.2525,0.2506,0.2421,0.2356,0.2371,0.2354,0.2203,0.2077,0.2026,0.1869,0.1784,0.1724,0.1747,0.1589,0.1605,0.1979,0.1861,0.1583,0.1583,0.1583,0.1583,0.1583,0.1583,0.2397,0.2413,0.2443,0.2397,0.2389,0.2274,0.2214,0.2121,0.2068,0.1894,0.1754,0.1729,0.1692,0.1548,0.1397,0.138,0.1317,0.1188,0.1301,0.1576,0.1624,0.167,0.1555,0.1217,0.1216,0.0789,0.0786,0.0784]},{"header":{"parameterUnit":"m.s-1","parameterCategory":2,"la1":30.2991,"la2":30.254,"lo1":-89.0895,"lo2":-89.0444,"dy":0.0017,"dx":0.0017,"nx":28,"ny":28,"refTime":"2025-09-19T09:00:00:Z","depth":"0","parameterNumber":3,"parameterNumberName":"V-component_of_CURRENTS"},"data":[0,0,0,0,0,0,0,0,0,0,0,0,0,0,0,0,0,0,0,0,0,0,0,0,0,0,0,0,0,0,0,0,0,0,0,0,0,0,0,0,0,0,0,0,0,0,0,0,0,0,0,0,0,0,0,0,0,0,0.0441,0.044,0,0.0374,0.0373,0.0372,0.032,0.0319,0.0319,0.0319,0.031,0.031,0.031,0,0,0,0,0,0,0,0,0,0,0,0,0,0.0454,0.0454,0.0441,0.044,0.044,0.0374,0.0373,0.0372,0.032,0.0319,0.0319,0.0319,0.031,0.031,0.031,0,0,0,0,0,0,0,0,0,0,0,0,0,0.042,0.0454,0.0441,0.0408,0.0405,0.0374,0.0373,0.0371,0.032,0.0319,0.0319,0.0319,0.031,0.031,0.031,0.0314,0,0,0.0309,0.0309,0,0,0,0,0,0,0,0,0.0422,0.0419,0.0414,0.0411,0.0407,0.0358,0.0374,0.0356,0.032,0.0348,0.0319,0.0319,0.0334,0.0332,0.0314,0.0314,0.0313,0.0309,0.0309,0.0309,0.0309,0,0,0,0,0,0,0,0.0425,0.0422,0.0411,0.0413,0.0409,0.0374,0.0369,0.037,0.0342,0.0346,0.0343,0.0341,0.0332,0.0314,0.0313,0.0313,0.0309,0.0309,0.0309,0.0309,0.0338,0.0339,0,0,0,0,0,0,0.0444,0.0424,0.0413,0.0409,0.0418,0.0374,0.0369,0.0371,0.034,0.0336,0.0342,0.0339,0.0314,0.0314,0.0313,0.0338,0.0309,0.0309,0.0309,0.0337,0.0338,0.0339,0,0,0,0,0,0,0.0445,0.0444,0.0415,0.0418,0.0412,0.0375,0.0378,0.037,0.0356,0.0337,0.0333,0.0337,0.0314,0.0313,0.031,0.0337,0.0309,0.0309,0.0336,0.0338,0.0339,0.0375,0,0,0,0,0,0,0.0446,0.0445,0.0445,0.0419,0.0413,0.0406,0.0378,0.0369,0.0357,0.0353,0.0332,0.033,0.0314,0.031,0.031,0.0336,0.0309,0.0335,0.0337,0.0338,0.0373,0.0377,0.0381,0,0,0,0,0,0.0446,0.0448,0.0446,0.0444,0.0418,0.0407,0.04,0.0369,0.0358,0.0355,0.0334,0.0331,0.0321,0.031,0.031,0.0337,0.0334,0.0336,0.0338,0.0371,0.0376,0.0381,0,0,0,0,0,0,0.0447,0.0442,0.0439,0.0438,0.043,0.0399,0.039,0.0377,0.0356,0.0352,0.0332,0.0329,0.0339,0.0332,0.0321,0.035,0.0332,0.0334,0.0357,0.0362,0.0366,0.0379,0.0309,0,0,0,0,0,0.0453,0.0456,0.0447,0.0447,0.0445,0.0421,0.0411,0.0397,0.0379,0.0368,0.0356,0.0347,0.0346,0.0348,0.0343,0.0356,0.0361,0.0377,0.0381,0.0385,0.0395,0.0423,0.0431,0.0345,0.0345,0.0345,0,0,0.0454,0.0452,0.0453,0.0448,0.0436,0.0439,0.0413,0.0405,0.041,0.0374,0.0372,0.036,0.0352,0.0361,0.0367,0.0359,0.041,0.0387,0.039,0.0399,0.0426,0.0435,0.0442,0.0347,0.0346,0.0346,0,0,0.0461,0.0458,0.0464,0.0463,0.0457,0.0448,0.0453,0.0435,0.0427,0.0426,0.0405,0.0407,0.0401,0.0401,0.0401,0.043,0.0429,0.0433,0.0468,0.0495,0.0503,0.0509,0.0518,0.0525,0.0438,0.0438,0.0438,0,0.0464,0.0473,0.0463,0.047,0.0475,0.046,0.0473,0.0464,0.0447,0.0457,0.0434,0.0438,0.0424,0.0451,0.045,0.0442,0.0448,0.0447,0.0501,0.0508,0.0514,0.0521,0.0529,0.044,0.044,0.044,0.044,0,0.0476,0.0485,0.0488,0.05,0.0502,0.051,0.051,0.0515,0.0509,0.0507,0.0528,0.0502,0.0513,0.0507,0.048,0.0524,0.051,0.0501,0.0489,0.0525,0.053,0.0537,0.0443,0.0442,0.0442,0.0441,0,0,0.0485,0.0497,0.05,0.0517,0.0523,0.0531,0.0549,0.0571,0.0599,0.0583,0.0625,0.0603,0.0598,0.0597,0.0577,0.0587,0.0619,0.056,0.056,0.0569,0.0668,0.0642,0.0647,0.0619,0.0621,0.0622,0.0651,0,0.0503,0.0528,0.0529,0.0562,0.0579,0.0583,0.0607,0.0626,0.0638,0.0673,0.0667,0.0691,0.0633,0.0644,0.0645,0.0636,0.0641,0.0611,0.0631,0.0632,0.0605,0.0655,0.0635,0.0659,0.0658,0.0659,0.066,0,0.0518,0.0536,0.057,0.061,0.062,0.0637,0.0691,0.071,0.0753,0.0766,0.079,0.0789,0.0808,0.0752,0.0756,0.0741,0.0706,0.0685,0.0686,0.0657,0.062,0.0624,0.0671,0.0631,0.067,0.0669,0.0669,0,0.0537,0.0569,0.0602,0.0612,0.0649,0.0674,0.0699,0.074,0.078,0.0835,0.088,0.0892,0.0921,0.0888,0.0833,0.0805,0.0834,0.0797,0.0738,0.0735,0.072,0.0713,0.0734,0.0798,0.0798,0.0798,0.0798,0,0.0561,0.0589,0.0614,0.0632,0.0684,0.0701,0.0764,0.0792,0.0858,0.0932,0.0932,0.0998,0.0957,0.0965,0.0889,0.0845,0.0883,0.0759,0.0751,0.073,0.0724,0.0689,0.0665,0.0799,0.0799,0.0799,0.0799,0,0.0581,0.0593,0.0634,0.0677,0.0691,0.073,0.08,0.0853,0.0908,0.1012,0.104,0.1101,0.1118,0.1057,0.1023,0.0933,0.0859,0.0845,0.0812,0.0799,0.0693,0.0671,0.0709,0.07,0.0797,0.0797,0.0797,0,0.0593,0.0612,0.0662,0.0688,0.0709,0.0763,0.0807,0.0869,0.0938,0.1079,0.1142,0.1201,0.1252,0.1186,0.1052,0.0938,0.0878,0.0823,0.076,0.0703,0.0674,0.0674,0.0664,0.0751,0.0751,0.075,0.075,0,0.0615,0.0631,0.0669,0.0723,0.0767,0.0827,0.0901,0.0966,0.1067,0.1167,0.1308,0.1365,0.1316,0.122,0.1055,0.0955,0.0806,0.0808,0.0773,0.0666,0.0648,0.0629,0.0702,0.0745,0.0746,0.0746,0.0746,0.0746,0.0628,0.0663,0.0709,0.0765,0.0819,0.0899,0.0963,0.106,0.1187,0.1344,0.1402,0.1477,0.1341,0.1129,0.1004,0.0762,0.0789,0.0671,0.0657,0.0669,0.0643,0.0696,0.0713,0.0713,0.0713,0.0713,0.0713,0,0.0643,0.069,0.0746,0.0822,0.0892,0.0915,0.1034,0.1108,0.1262,0.138,0.1491,0.1446,0.1274,0.107,0.0769,0.063,0.0591,0.0564,0.0561,0.0562,0.0629,0.0607,0.0573,0.0573,0.0573,0.0574,0.0574,0.0574,0.0655,0.0711,0.075,0.0866,0.0928,0.1023,0.1095,0.1209,0.1302,0.1413,0.1435,0.1461,0.134,0.0904,0.0617,0.0538,0.0484,0.046,0.0458,0.0485,0.0493,0.0502,0.0477,0.0416,0.0416,0.04,0.0399,0.0399]}],[{"header":{"parameterUnit":"m.s-1","parameterCategory":2,"la1":30.2991,"la2":30.254,"lo1":-89.0895,"lo2":-89.0444,"dy":0.0017,"dx":0.0017,"nx":28,"ny":28,"refTime":"2025-09-19T09:00:00:Z","depth":"2","parameterNumber":2,"parameterNumberName":"U-component_of_CURRENTS"},"data":[0,0,0,0,0,0,0,0,0,0,0,0,0,0,0,0,0,0,0,0,0,0,0,0,0,0,0,0,0,0,0,0,0,0,0,0,0,0,0,0,0,0,0,0,0,0,0,0,0,0,0,0,0,0,0,0,0,0,0.1955,0.1954,0,0.1995,0.1997,0.1999,0.2082,0.2082,0.2083,0.2083,0.2097,0.2098,0.2098,0,0,0,0,0,0,0,0,0,0,0,0,0,0.2056,0.2054,0.1955,0.1954,0.1953,0.1995,0.1997,0.1999,0.2082,0.2082,0.2083,0.2083,0.2097,0.2098,0.2098,0,0,0,0,0,0,0,0,0,0,0,0,0,0.2059,0.2053,0.1955,0.1989,0.1991,0.1995,0.1997,0.2,0.2082,0.2082,0.2083,0.2083,0.2097,0.2097,0.2098,0.2088,0,0,0.2098,0.2098,0,0,0,0,0,0,0,0,0.2059,0.2057,0.1985,0.1986,0.1989,0.2021,0.2037,0.2023,0.2082,0.2063,0.2083,0.2084,0.206,0.2063,0.2091,0.2089,0.209,0.2098,0.2098,0.2098,0.2098,0,0,0,0,0,0,0,0.2058,0.2056,0.1986,0.1983,0.1986,0.2037,0.2039,0.2037,0.2069,0.2065,0.2067,0.2048,0.2063,0.209,0.2091,0.209,0.2098,0.2098,0.2098,0.2098,0.2136,0.2137,0,0,0,0,0,0,0.2017,0.2055,0.1984,0.1985,0.2009,0.2034,0.2037,0.2022,0.2069,0.2073,0.2048,0.2052,0.209,0.2091,0.2092,0.2124,0.2098,0.2098,0.2098,0.2135,0.2137,0.2138,0,0,0,0,0,0,0.202,0.2011,0.1982,0.201,0.2008,0.2029,0.2014,0.2022,0.2072,0.2054,0.2061,0.2088,0.209,0.2092,0.2102,0.2123,0.2098,0.2098,0.2134,0.2136,0.2137,0.2161,0,0,0,0,0,0,0.2023,0.2012,0.2008,0.2007,0.2004,0.2004,0.2012,0.2022,0.205,0.2058,0.209,0.2091,0.2091,0.2102,0.2102,0.2123,0.2098,0.2133,0.2135,0.2137,0.2159,0.2163,0.2167,0,0,0,0,0,0.2026,0.2009,0.2008,0.1999,0.1991,0.2003,0.2011,0.2037,0.2052,0.2084,0.2093,0.2092,0.2114,0.2102,0.2102,0.2124,0.2132,0.2134,0.2137,0.2157,0.2162,0.2167,0,0,0,0,0,0,0.2027,0.2014,0.2013,0.1986,0.2,0.2012,0.2032,0.2048,0.2087,0.209,0.2095,0.2096,0.2105,0.2115,0.2102,0.2142,0.2126,0.2129,0.2142,0.2147,0.2151,0.216,0.2099,0,0,0,0,0,0.2024,0.2032,0.2014,0.2001,0.2006,0.2027,0.2039,0.2052,0.2067,0.2088,0.2099,0.2111,0.2113,0.2131,0.2125,0.2152,0.2167,0.217,0.2173,0.2177,0.2185,0.224,0.225,0.2145,0.2145,0.2145,0,0,0.2021,0.201,0.2015,0.2006,0.2024,0.2035,0.2043,0.2059,0.2089,0.2076,0.2126,0.2109,0.2116,0.2135,0.2145,0.2153,0.221,0.2179,0.2182,0.2189,0.2243,0.2254,0.2263,0.2146,0.2146,0.2146,0,0,0.2005,0.2012,0.2011,0.2039,0.2044,0.2052,0.2058,0.2075,0.2117,0.2154,0.2131,0.2131,0.217,0.2161,0.2168,0.2193,0.2209,0.22,0.225,0.2303,0.2312,0.232,0.2333,0.2343,0.2226,0.2226,0.2226,0,0.2005,0.1992,0.2015,0.2028,0.2047,0.206,0.2071,0.2115,0.2135,0.2144,0.2179,0.2195,0.2188,0.2195,0.2206,0.22,0.2228,0.2229,0.2308,0.2317,0.2325,0.2337,0.2347,0.2227,0.2227,0.2227,0.2227,0,0.1997,0.2001,0.201,0.2034,0.206,0.208,0.2114,0.2146,0.2188,0.2201,0.2234,0.2248,0.227,0.2259,0.225,0.2287,0.2283,0.2287,0.2296,0.2337,0.2347,0.2357,0.2229,0.2229,0.2229,0.2228,0,0,0.1961,0.1996,0.2002,0.2027,0.2074,0.2091,0.2139,0.2162,0.2195,0.2246,0.2309,0.2304,0.2314,0.2323,0.2311,0.235,0.2413,0.2359,0.2361,0.237,0.2519,0.236,0.2355,0.2447,0.245,0.2452,0.2495,0,0.1952,0.1958,0.1991,0.2031,0.2043,0.2102,0.2152,0.2181,0.2233,0.2298,0.2328,0.2365,0.2348,0.2372,0.2418,0.2398,0.2445,0.2399,0.2479,0.2481,0.2334,0.2364,0.2182,0.2192,0.2505,0.2506,0.2508,0,0.1936,0.1942,0.1961,0.2031,0.2048,0.2088,0.2165,0.222,0.2287,0.2333,0.2386,0.2418,0.2458,0.2479,0.2526,0.2507,0.253,0.2526,0.2528,0.238,0.2341,0.2207,0.2199,0.2525,0.2523,0.2522,0.2521,0,0.1901,0.1934,0.1948,0.1983,0.2051,0.2096,0.2147,0.2209,0.2255,0.2358,0.2388,0.2469,0.2522,0.258,0.2599,0.2579,0.2668,0.264,0.2514,0.2502,0.2359,0.233,0.2708,0.2708,0.2708,0.2708,0.2708,0,0.1895,0.1928,0.1939,0.1975,0.2011,0.2085,0.2145,0.2211,0.2299,0.2338,0.2415,0.2459,0.2559,0.2622,0.2645,0.2608,0.272,0.2519,0.2509,0.2356,0.2327,0.2629,0.2619,0.271,0.2709,0.2709,0.2709,0,0.1902,0.1907,0.1933,0.1982,0.2003,0.2047,0.2139,0.2178,0.2255,0.2333,0.2367,0.2461,0.2503,0.2582,0.2661,0.2619,0.2624,0.2598,0.2388,0.2348,0.2405,0.2396,0.2423,0.2418,0.2413,0.241,0.2407,0,0.1903,0.1905,0.193,0.1934,0.1977,0.2028,0.206,0.2153,0.2199,0.2306,0.2347,0.241,0.2413,0.2447,0.2421,0.2419,0.2541,0.2233,0.2131,0.2391,0.238,0.2378,0.2375,0.1959,0.1953,0.1948,0.1943,0,0.1897,0.191,0.1915,0.192,0.1947,0.196,0.2033,0.204,0.2154,0.2183,0.2229,0.223,0.2244,0.2123,0.2114,0.2092,0.2206,0.2113,0.2498,0.2032,0.195,0.1939,0.1953,0.1896,0.1901,0.1904,0.1907,0.1909,0.1864,0.1861,0.1855,0.1869,0.1897,0.1893,0.1865,0.1919,0.193,0.1948,0.2041,0.1962,0.1976,0.1786,0.1747,0.1718,0.1845,0.1776,0.1795,0.182,0.1731,0.1642,0.1513,0.1516,0.1518,0.152,0.1521,0,0.18,0.1807,0.1809,0.1787,0.1784,0.1849,0.184,0.1761,0.1716,0.1751,0.1735,0.1533,0.141,0.1452,0.1304,0.1262,0.129,0.1228,0.1276,0.1322,0.1364,0.1255,0.091,0.0909,0.0907,0.0905,0,0,0.1743,0.1728,0.1734,0.167,0.1682,0.1622,0.1585,0.1495,0.1464,0.134,0.1291,0.1321,0.1373,0.1121,0.1084,0.098,0.115,0.0935,0.1425,0.1527,0.1567,0.1674,0.1556,0,0,0,0,0]},{"header":{"parameterUnit":"m.s-1","parameterCategory":2,"la1":30.2991,"la2":30.254,"lo1":-89.0895,"lo2":-89.0444,"dy":0.0017,"dx":0.0017,"nx":28,"ny":28,"refTime":"2025-09-19T09:00:00:Z","depth":"2","parameterNumber":3,"parameterNumberName":"V-component_of_CURRENTS"},"data":[0,0,0,0,0,0,0,0,0,0,0,0,0,0,0,0,0,0,0,0,0,0,0,0,0,0,0,0,0,0,0,0,0,0,0,0,0,0,0,0,0,0,0,0,0,0,0,0,0,0,0,0,0,0,0,0,0,0,0.0204,0.0204,0,0.0126,0.0124,0.0123,0.01,0.0101,0.0102,0.0103,0.0041,0.0039,0.0036,0,0,0,0,0,0,0,0,0,0,0,0,0,0.0234,0.0234,0.0205,0.0204,0.0203,0.0126,0.0124,0.0123,0.01,0.0101,0.0102,0.0103,0.0042,0.0039,0.0036,0,0,0,0,0,0,0,0,0,0,0,0,0,0.0192,0.0234,0.0205,0.0185,0.0183,0.0126,0.0124,0.0123,0.01,0.0101,0.0102,0.0103,0.0043,0.0039,0.0036,-0.0008,0,0,0.0025,0.0024,0,0,0,0,0,0,0,0,0.0195,0.0191,0.0189,0.0186,0.0184,0.0127,0.0112,0.0081,0.01,0.0128,0.0103,0.0104,0.0073,0.0067,0.0044,-0.0011,-0.0013,0.0025,0.0023,0.0021,0.002,0,0,0,0,0,0,0,0.0198,0.0193,0.017,0.0188,0.0185,0.0146,0.0141,0.0105,0.0093,0.0126,0.0125,0.0121,0.0071,0.0048,0.0043,-0.0014,0.0025,0.0022,0.002,0.0018,0.0013,0.0014,0,0,0,0,0,0,0.0218,0.0197,0.0172,0.0168,0.0196,0.0145,0.014,0.0141,0.0093,0.0087,0.012,0.012,0.0053,0.0047,0.0041,0.0061,0.0021,0.0018,0.0016,0.0011,0.0013,0.0015,0,0,0,0,0,0,0.0219,0.0217,0.0176,0.0183,0.0175,0.0144,0.0145,0.0139,0.0126,0.0089,0.0083,0.0115,0.0054,0.0046,0.0046,0.0056,0.0016,0.0013,0.0008,0.0011,0.0014,0.0053,0,0,0,0,0,0,0.022,0.0218,0.0219,0.0184,0.0176,0.0152,0.0144,0.0137,0.0123,0.0122,0.0082,0.0077,0.0054,0.0051,0.0042,0.005,0.001,0.0006,0.001,0.0013,0.0049,0.0057,0.0063,0,0,0,0,0,0.0222,0.0219,0.0219,0.0216,0.0181,0.0153,0.0144,0.0123,0.0122,0.0114,0.0112,0.0079,0.0069,0.005,0.0039,0.0045,0.0004,0.0009,0.0013,0.0046,0.0055,0.0063,0,0,0,0,0,0,0.0223,0.0216,0.0215,0.0209,0.019,0.0151,0.0139,0.0126,0.0112,0.0119,0.0089,0.0084,0.0087,0.007,0.005,0.0062,0.0036,0.0038,0.0065,0.0073,0.008,0.0085,0.0008,0,0,0,0,0,0.0227,0.023,0.0212,0.0206,0.0201,0.0172,0.0156,0.0145,0.013,0.0124,0.0093,0.0086,0.0092,0.0088,0.0073,0.0068,0.0056,0.0074,0.0081,0.0087,0.0089,0.01,0.0107,0.003,0.0029,0.0029,0,0,0.0226,0.0222,0.0223,0.0207,0.019,0.0181,0.0164,0.0148,0.0146,0.0119,0.0101,0.0096,0.0097,0.0102,0.0103,0.0091,0.0104,0.0093,0.0097,0.0096,0.0105,0.0112,0.0118,0.0032,0.0032,0.0031,0,0,0.0225,0.0224,0.0228,0.0218,0.0204,0.0186,0.0188,0.0153,0.0147,0.0135,0.0134,0.0146,0.0117,0.0132,0.014,0.0178,0.0137,0.0174,0.0209,0.022,0.0225,0.023,0.022,0.0223,0.0182,0.0182,0.0182,0,0.0227,0.0232,0.0221,0.0221,0.022,0.0196,0.0199,0.0182,0.015,0.0158,0.0141,0.0151,0.0136,0.0184,0.0201,0.019,0.0182,0.0171,0.0226,0.0231,0.0235,0.0223,0.0226,0.0184,0.0184,0.0184,0.0183,0,0.0231,0.0236,0.0236,0.0238,0.023,0.0228,0.0216,0.0204,0.0194,0.0183,0.0208,0.0202,0.0222,0.0219,0.0216,0.0255,0.0235,0.0227,0.0197,0.0245,0.023,0.0232,0.0187,0.0187,0.0186,0.0185,0,0,0.0244,0.0244,0.0246,0.0259,0.0247,0.0244,0.0246,0.025,0.0273,0.0244,0.0282,0.0287,0.029,0.0302,0.0306,0.0308,0.0323,0.0281,0.0281,0.0257,0.0331,0.0295,0.0294,0.0322,0.0323,0.0324,0.0305,0,0.0258,0.027,0.0265,0.0282,0.0291,0.0284,0.0294,0.0296,0.0295,0.0315,0.0332,0.0355,0.0325,0.0347,0.0352,0.0339,0.0334,0.0328,0.03,0.0299,0.025,0.0297,0.0306,0.0288,0.0307,0.0308,0.0308,0,0.027,0.0281,0.03,0.0328,0.0335,0.034,0.0373,0.0383,0.0408,0.0412,0.0441,0.044,0.0469,0.0428,0.0423,0.0421,0.0379,0.035,0.0349,0.0303,0.0269,0.0247,0.0292,0.0312,0.0312,0.0312,0.0311,0,0.0292,0.0311,0.0333,0.0339,0.0357,0.0377,0.0395,0.0414,0.0446,0.048,0.0506,0.0528,0.0559,0.0517,0.0466,0.0443,0.0444,0.0408,0.0331,0.0327,0.0322,0.0316,0.0388,0.0388,0.0388,0.0388,0.0388,0,0.0309,0.0333,0.0349,0.0363,0.0409,0.0416,0.0471,0.0485,0.0533,0.0595,0.0573,0.0625,0.058,0.0576,0.0502,0.044,0.0478,0.0342,0.0327,0.0336,0.0332,0.0344,0.0339,0.0387,0.0387,0.0387,0.0387,0,0.0324,0.0332,0.0369,0.0403,0.0417,0.0456,0.0517,0.0562,0.0593,0.0678,0.0694,0.0713,0.0698,0.0635,0.0578,0.0497,0.0427,0.0387,0.039,0.0374,0.0284,0.0282,0.0288,0.0287,0.0286,0.0285,0.0285,0,0.0331,0.0346,0.0398,0.0426,0.0443,0.0498,0.0541,0.0587,0.0645,0.0737,0.0792,0.0796,0.0808,0.0705,0.0571,0.0439,0.0427,0.034,0.029,0.0293,0.0278,0.0277,0.0276,0.0298,0.0297,0.0297,0.0297,0,0.0347,0.0367,0.0393,0.0452,0.05,0.0565,0.0638,0.0694,0.0774,0.0837,0.0929,0.0938,0.0846,0.0726,0.0538,0.0441,0.036,0.0322,0.0359,0.0316,0.0299,0.0284,0.0284,0.0292,0.0293,0.0293,0.0293,0.0294,0.036,0.0386,0.0422,0.0478,0.0543,0.0634,0.0698,0.0782,0.0881,0.0978,0.1002,0.1003,0.0878,0.0617,0.0478,0.0319,0.0313,0.0239,0.0242,0.0246,0.0244,0.0226,0.0204,0.0204,0.0204,0.0204,0.0204,0,0.0381,0.0404,0.0449,0.0529,0.0611,0.0646,0.0764,0.0821,0.0941,0.1004,0.1053,0.0905,0.077,0.0625,0.0385,0.0232,0.0225,0.0182,0.0218,0.0223,0.0227,0.0226,0.0181,0.018,0.018,0.0179,0,0,0.0389,0.0428,0.0448,0.0567,0.064,0.075,0.0825,0.0901,0.0956,0.0988,0.0987,0.0955,0.0802,0.0618,0.0441,0.0319,0.0296,0.0281,0.0314,0.0382,0.0388,0.0273,0.0277,0,0,0,0,0]}],[{"header":{"parameterUnit":"m.s-1","parameterCategory":2,"la1":30.2991,"la2":30.254,"lo1":-89.0895,"lo2":-89.0444,"dy":0.0017,"dx":0.0017,"nx":28,"ny":28,"refTime":"2025-09-19T09:00:00:Z","depth":"4","parameterNumber":2,"parameterNumberName":"U-component_of_CURRENTS"},"data":[0,0,0,0,0,0,0,0,0,0,0,0,0,0,0,0,0,0,0,0,0,0,0,0,0,0,0,0,0,0,0,0,0,0,0,0,0,0,0,0,0,0,0,0,0,0,0,0,0,0,0,0,0,0,0,0,0,0,0.0718,0.0718,0,0.0659,0.0658,0.0656,0.0675,0.0676,0.0678,0.068,0.0585,0.0581,0.0577,0,0,0,0,0,0,0,0,0,0,0,0,0,0.0742,0.0741,0.0718,0.0718,0.0717,0.0659,0.0658,0.0656,0.0674,0.0676,0.0679,0.0681,0.0586,0.0582,0.0577,0,0,0,0,0,0,0,0,0,0,0,0,0,0.0707,0.0741,0.0718,0.0723,0.0724,0.0659,0.0657,0.0656,0.0674,0.0676,0.0679,0.0682,0.0588,0.0582,0.0576,0.0485,0,0,0.0557,0.0554,0,0,0,0,0,0,0,0,0.0709,0.0705,0.0723,0.0723,0.0723,0.0682,0.0631,0.0599,0.0673,0.0687,0.068,0.0683,0.0616,0.0607,0.0583,0.048,0.0476,0.0556,0.0552,0.055,0.0548,0,0,0,0,0,0,0,0.0711,0.0707,0.0689,0.0723,0.0723,0.0693,0.0692,0.0624,0.0632,0.0686,0.0689,0.069,0.0615,0.0589,0.0581,0.0475,0.0556,0.0551,0.0547,0.0545,0.0573,0.0577,0,0,0,0,0,0,0.0732,0.071,0.0691,0.0688,0.0729,0.0692,0.0689,0.0688,0.0634,0.063,0.0688,0.0691,0.0598,0.0588,0.0578,0.0633,0.055,0.0544,0.054,0.0568,0.0574,0.0579,0,0,0,0,0,0,0.0733,0.0731,0.0693,0.0702,0.0696,0.069,0.0687,0.0685,0.0694,0.0637,0.0632,0.0703,0.06,0.0586,0.0588,0.0623,0.0541,0.0536,0.0563,0.057,0.0576,0.0636,0,0,0,0,0,0,0.0733,0.0731,0.0742,0.0703,0.0697,0.0672,0.0685,0.0683,0.0691,0.0696,0.0647,0.0639,0.0601,0.0598,0.0582,0.0613,0.0531,0.0557,0.0566,0.0574,0.0628,0.0644,0.0657,0,0,0,0,0,0.0734,0.0735,0.0742,0.0741,0.071,0.0672,0.0665,0.0665,0.069,0.0684,0.0695,0.0642,0.0643,0.0595,0.0575,0.0605,0.0553,0.0564,0.0573,0.0621,0.064,0.0656,0,0,0,0,0,0,0.0742,0.0736,0.0744,0.0742,0.072,0.0678,0.0679,0.0678,0.0675,0.0699,0.0657,0.0649,0.0673,0.0644,0.0594,0.0656,0.0604,0.0611,0.0648,0.0665,0.0679,0.0675,0.0525,0,0,0,0,0,0.0751,0.0756,0.0736,0.0733,0.0732,0.071,0.0701,0.0701,0.0691,0.0694,0.0664,0.0672,0.069,0.0684,0.0673,0.0666,0.0651,0.0697,0.0711,0.0723,0.0718,0.0761,0.0777,0.0612,0.0612,0.0611,0,0,0.0753,0.075,0.0754,0.0737,0.0725,0.0704,0.0711,0.0705,0.0694,0.0679,0.0669,0.0698,0.0705,0.0728,0.0738,0.0708,0.0766,0.0736,0.0744,0.0733,0.0773,0.0788,0.0802,0.0619,0.0617,0.0616,0,0,0.0747,0.076,0.0762,0.0744,0.0738,0.0719,0.0728,0.0702,0.0708,0.0696,0.0731,0.0789,0.0752,0.0793,0.0807,0.0892,0.0841,0.0916,0.0964,0.1007,0.1019,0.1029,0.1024,0.1034,0.0921,0.0921,0.0921,0,0.0756,0.075,0.0752,0.0739,0.0733,0.0732,0.0721,0.0706,0.0686,0.0714,0.0707,0.0791,0.0782,0.0872,0.0926,0.0913,0.0926,0.0881,0.1019,0.1029,0.1039,0.1031,0.1041,0.0925,0.0925,0.0925,0.0924,0,0.0736,0.0739,0.0736,0.0727,0.0713,0.0705,0.0692,0.0699,0.0715,0.0721,0.0807,0.0833,0.0897,0.093,0.0939,0.1047,0.1029,0.1025,0.0954,0.1057,0.1045,0.1053,0.0931,0.093,0.0929,0.0928,0,0,0.0741,0.0731,0.0732,0.0732,0.0715,0.07,0.0704,0.072,0.0753,0.0775,0.0835,0.0919,0.0979,0.1007,0.1061,0.1112,0.1184,0.111,0.111,0.1068,0.1262,0.1136,0.1132,0.1214,0.1216,0.1218,0.122,0,0.0733,0.0718,0.0713,0.0698,0.0691,0.0701,0.0704,0.0726,0.0749,0.0795,0.0893,0.0964,0.0994,0.1064,0.1122,0.1185,0.1214,0.1182,0.1201,0.12,0.1045,0.1141,0.1225,0.1226,0.1228,0.123,0.1231,0,0.0711,0.0711,0.0705,0.0709,0.0712,0.0707,0.0747,0.075,0.0825,0.0862,0.0968,0.1021,0.115,0.1138,0.1264,0.1253,0.1259,0.1282,0.1283,0.1145,0.1091,0.1111,0.1245,0.1244,0.1243,0.1242,0.1241,0,0.0698,0.07,0.0707,0.07,0.0705,0.073,0.0747,0.0796,0.0824,0.0928,0.0971,0.1107,0.1189,0.1249,0.1293,0.1298,0.1381,0.138,0.1258,0.1248,0.1325,0.1314,0.1426,0.1426,0.1426,0.1426,0.1426,0,0.0665,0.0666,0.0715,0.0701,0.0743,0.0747,0.0798,0.0831,0.0899,0.095,0.1029,0.1093,0.1227,0.1279,0.1306,0.1304,0.1386,0.1271,0.1252,0.1353,0.1345,0.133,0.1318,0.1426,0.1426,0.1426,0.1426,0,0.0608,0.0642,0.0648,0.0692,0.0728,0.0751,0.0818,0.0841,0.0917,0.0982,0.1027,0.112,0.1199,0.1258,0.1346,0.1303,0.1317,0.1276,0.1353,0.1337,0.1147,0.1141,0.1162,0.1158,0.1154,0.1151,0.1149,0,0.0578,0.0575,0.0642,0.0655,0.0674,0.0737,0.0777,0.0862,0.0882,0.0987,0.1007,0.1102,0.1157,0.1176,0.1242,0.125,0.1229,0.12,0.1206,0.1147,0.1127,0.1125,0.1123,0.1143,0.1142,0.1141,0.114,0,0.0503,0.0533,0.0536,0.0577,0.0624,0.0675,0.0736,0.0768,0.0865,0.094,0.0986,0.1015,0.1072,0.1131,0.1123,0.1131,0.1217,0.1163,0.1171,0.1177,0.1125,0.1108,0.111,0.1128,0.113,0.1131,0.1132,0,0.0463,0.0448,0.0462,0.0491,0.0533,0.0572,0.064,0.0689,0.0756,0.0879,0.0901,0.0987,0.1084,0.1064,0.1068,0.1057,0.1049,0.1008,0.1024,0.1038,0.0992,0.0908,0.0835,0,0,0,0,0,0.0431,0.0389,0.0371,0.04,0.042,0.0479,0.0574,0.0645,0.0784,0.0793,0.0845,0.0894,0.0916,0.0956,0.0921,0.0984,0.1032,0.0932,0.0988,0.106,0.1075,0.1031,0,0,0,0,0,0,0.0397,0.0372,0.0342,0.0307,0.0322,0.0377,0.0459,0.0562,0.0583,0.0712,0.0743,0.0814,0.0861,0.0935,0.0901,0.0906,0.0913,0.0983,0.0979,0.1052,0.1065,0.1077,0.1036,0,0,0,0,0]},{"header":{"parameterUnit":"m.s-1","parameterCategory":2,"la1":30.2991,"la2":30.254,"lo1":-89.0895,"lo2":-89.0444,"dy":0.0017,"dx":0.0017,"nx":28,"ny":28,"refTime":"2025-09-19T09:00:00:Z","depth":"4","parameterNumber":3,"parameterNumberName":"V-component_of_CURRENTS"},"data":[0,0,0,0,0,0,0,0,0,0,0,0,0,0,0,0,0,0,0,0,0,0,0,0,0,0,0,0,0,0,0,0,0,0,0,0,0,0,0,0,0,0,0,0,0,0,0,0,0,0,0,0,0,0,0,0,0,0,0.0154,0.0154,0,0.0136,0.0136,0.0136,0.0142,0.0142,0.0143,0.0143,0.0216,0.0217,0.0219,0,0,0,0,0,0,0,0,0,0,0,0,0,0.0158,0.0158,0.0154,0.0154,0.0154,0.0136,0.0136,0.0136,0.0142,0.0142,0.0143,0.0143,0.0215,0.0217,0.0219,0,0,0,0,0,0,0,0,0,0,0,0,0,0.015,0.0158,0.0154,0.0155,0.0155,0.0136,0.0136,0.0135,0.0142,0.0142,0.0143,0.0143,0.0215,0.0217,0.0219,0.0222,0,0,0.0226,0.0227,0,0,0,0,0,0,0,0,0.015,0.015,0.0155,0.0155,0.0155,0.0142,0.0164,0.0169,0.0142,0.0147,0.0143,0.0144,0.0199,0.0203,0.0197,0.0225,0.0228,0.0227,0.0228,0.0229,0.023,0,0,0,0,0,0,0,0.0151,0.015,0.0147,0.0155,0.0154,0.0143,0.0143,0.0164,0.0171,0.0146,0.0147,0.0144,0.02,0.0194,0.0199,0.0229,0.0227,0.0229,0.023,0.0231,0.0244,0.0243,0,0,0,0,0,0,0.0154,0.0151,0.0148,0.0147,0.0154,0.0143,0.0143,0.0145,0.0169,0.0173,0.0144,0.0145,0.019,0.0196,0.0201,0.0217,0.0229,0.0231,0.0233,0.0245,0.0243,0.0242,0,0,0,0,0,0,0.0154,0.0154,0.0148,0.0148,0.0146,0.0142,0.0145,0.0145,0.0146,0.0166,0.0172,0.0147,0.0191,0.0198,0.0205,0.022,0.0232,0.0234,0.0246,0.0244,0.0243,0.0242,0,0,0,0,0,0,0.0155,0.0155,0.0157,0.0148,0.0147,0.0146,0.0145,0.0144,0.0143,0.0144,0.0171,0.0177,0.0192,0.0201,0.0207,0.0223,0.0236,0.0247,0.0245,0.0243,0.0243,0.0241,0.0238,0,0,0,0,0,0.0155,0.0156,0.0157,0.0157,0.015,0.0146,0.0144,0.0143,0.0143,0.0146,0.0146,0.0177,0.0193,0.0202,0.021,0.0227,0.0248,0.0246,0.0243,0.0245,0.0241,0.0238,0,0,0,0,0,0,0.0156,0.0156,0.0158,0.0158,0.0157,0.0148,0.0146,0.0145,0.0145,0.0147,0.0164,0.017,0.018,0.0193,0.0203,0.0219,0.0226,0.0225,0.0224,0.0221,0.0219,0.0226,0.0238,0,0,0,0,0,0.0157,0.0161,0.0158,0.0159,0.0159,0.0153,0.015,0.015,0.0148,0.0149,0.0164,0.0171,0.0174,0.0189,0.0195,0.021,0.0205,0.0222,0.022,0.0218,0.0224,0.0206,0.0203,0.0234,0.0234,0.0234,0,0,0.0157,0.0158,0.0159,0.016,0.0157,0.0159,0.0153,0.0152,0.0154,0.0159,0.0167,0.0165,0.0171,0.0179,0.0186,0.0197,0.0202,0.0214,0.0213,0.0221,0.0203,0.02,0.0198,0.0233,0.0233,0.0233,0,0,0.0158,0.016,0.0164,0.0165,0.0165,0.0163,0.0165,0.0162,0.0161,0.0162,0.0158,0.0156,0.0175,0.0175,0.0178,0.0163,0.0182,0.0171,0.018,0.0162,0.016,0.0158,0.0136,0.0132,0.0179,0.0179,0.0179,0,0.0159,0.0166,0.0164,0.0169,0.0172,0.0168,0.0175,0.0169,0.0168,0.017,0.0168,0.0163,0.0171,0.0172,0.0163,0.0163,0.0151,0.0197,0.016,0.0158,0.0157,0.0135,0.013,0.0179,0.0179,0.0179,0.0179,0,0.0163,0.0171,0.0173,0.0183,0.0185,0.0189,0.0186,0.0189,0.0188,0.0185,0.0181,0.0169,0.0173,0.017,0.0166,0.0159,0.0153,0.0154,0.0174,0.0154,0.0131,0.0127,0.0178,0.0178,0.0178,0.0178,0,0,0.0164,0.0175,0.0178,0.019,0.0194,0.02,0.0202,0.0207,0.0214,0.0203,0.0206,0.0191,0.0186,0.0185,0.0177,0.0163,0.0132,0.0157,0.0156,0.0146,0.0088,0.0087,0.0082,0.0129,0.0128,0.0128,0.0074,0,0.0172,0.0189,0.0191,0.0211,0.0222,0.0223,0.0231,0.0233,0.0229,0.0231,0.0209,0.021,0.0191,0.0194,0.0172,0.0147,0.0123,0.0147,0.0101,0.0099,0.011,0.0078,0.0126,0.0071,0.007,0.007,0.0069,0,0.0179,0.0192,0.0211,0.0238,0.0243,0.0255,0.0273,0.0279,0.0274,0.0272,0.0259,0.0242,0.0221,0.0203,0.0146,0.0163,0.0124,0.0097,0.0095,0.0095,0.0091,0.0097,0.0061,0.0062,0.0063,0.0063,0.0064,0,0.0189,0.0211,0.023,0.0236,0.0259,0.0272,0.029,0.0295,0.031,0.0301,0.0306,0.027,0.026,0.0205,0.0145,0.0148,0.0075,0.0073,0.0029,0.0028,0.0048,0.0051,0.0021,0.0021,0.0021,0.0021,0.0021,0,0.0199,0.0217,0.0239,0.0251,0.0286,0.0295,0.0331,0.0337,0.035,0.0369,0.0332,0.0327,0.026,0.021,0.0149,0.0077,0.0076,0.0025,0.0014,0.0046,0.0049,0.0045,0.0048,0.0019,0.002,0.002,0.0021,0,0.0208,0.0216,0.0246,0.0277,0.0292,0.0319,0.0372,0.0396,0.0401,0.042,0.0421,0.0376,0.0313,0.0233,0.0145,0.0091,0.0019,-0.0011,0.0025,0.0018,-0.0019,-0.0016,-0.0062,-0.0063,-0.0063,-0.0064,-0.0064,0,0.0211,0.0226,0.0271,0.0296,0.0313,0.0359,0.0396,0.0423,0.0447,0.0447,0.0452,0.0399,0.0357,0.0226,0.0142,0.0021,0.0002,-0.004,-0.003,-0.0022,-0.0028,-0.0024,-0.002,-0.0065,-0.0065,-0.0065,-0.0065,0,0.0222,0.0239,0.0267,0.0319,0.0358,0.0411,0.046,0.0479,0.0504,0.0508,0.0478,0.0408,0.0332,0.0229,0.0134,0.0046,-0.0011,-0.0044,-0.0044,-0.0036,-0.0026,-0.003,-0.0025,-0.0066,-0.0066,-0.0066,-0.0066,0,0.0232,0.0256,0.0293,0.034,0.0393,0.0441,0.047,0.0496,0.0519,0.0512,0.05,0.0415,0.037,0.0241,0.0152,0.0069,0.0048,0.0017,0.0014,0.0015,0.0054,0.0079,0.0057,0,0,0,0,0,0.0238,0.0266,0.0313,0.036,0.0415,0.0447,0.0502,0.0523,0.0539,0.0523,0.0515,0.0442,0.0313,0.0253,0.017,0.0141,0.0031,0.004,-0.0006,-0.0074,-0.0073,-0.0039,0,0,0,0,0,0,0.024,0.028,0.031,0.0369,0.0406,0.0467,0.0503,0.0517,0.0508,0.0508,0.044,0.0415,0.0289,0.0359,0.0164,0.0139,0.0097,-0.0017,-0.0019,-0.0075,-0.0074,-0.0072,-0.0038,0,0,0,0,0]}]]